Погода в Тымлате

Россия / Камчатский край     59°29′22″N   163°11′18″E
темп.,
°C
ветер,
м/с
пор.,
м/с
влажн.,
%
обл.,
%
осадки,
мм/ч
давл.,
гПа
погр.,
м
25 февраля, чт
чт2500:00−25сз458511 0.0 100940
03:00−23сз5694100 0.1 1008142
06:00−22ссз4598100 0.8 1008186
09:00−21ссз4597100 1.1 1009175
12:00−19ссз3490100 1.1 1010198
15:00−19с348433 0.0 1009215
18:00−22ссз338716 0.0 101023
21:00−24ссз33880 0.0 101221
26 февраля, пт
пт2600:00−25ссз33874 0.0 101221
03:00−25сз348556 0.0 101328
06:00−22сз338779 0.0 101472
09:00−19ссз3396100 0.1 101580
12:00−17с3394100 0.2 1015160
15:00−16с3493100 0.1 1016204
18:00−18с3493100 0.2 1017135
21:00−20с3494100 0.1 101899
27 февраля, сб
сб2700:00−20с3396100 0.1 101974
03:00−21с339398 0.0 101965
06:00−23ссз238798 0.0 101936
09:00−23с238598 0.0 1020100
12:00−23с238195 0.0 1020190
15:00−22ссв238093 0.0 1021224
18:00−25ссв228785 0.0 102126
21:00−27с228449 0.0 102323
28 февраля, вс
вс2800:00−28с228257 0.0 102323
03:00−28с238381 0.0 102224
06:00−28с238455 0.0 102124
09:00−25с339362 0.0 102091
12:00−19с459681 0.3 1017227
15:00−17ссв61093100 0.3 1014494
18:00−17с5989100 0.3 1010235
21:00−19ссз71186100 0.0 1007225
1 марта, пн
пн100:00−20ссз71498100 1.3 1001327
03:00−21ссз92097100 1.9 997422
06:00−22ссз102196100 4.1 994417
09:00−21сз82097100 2.1 992432
12:00−20сз81796100 3.8 990522
15:00−19сз71589100 0.8 989596
18:00−20ссз81480100 0.8 991630
21:00−21сз8147997 0.0 994500